{"data":{"norad_id":42915,"intl_designator":"2017-047A","name":"TDRS 13","alt_names":[],"object_type":"PAYLOAD","status":"ACTIVE","operator":null,"country":"US","launch_date":"2017-08-18","launch_site_code":"AFETR","launch_vehicle":null,"mission":null,"orbit_class":"UNKNOWN","rcs_meters":null,"size_class":null,"mass_kg":null,"dimensions":null,"purposes":["comms"],"wikipedia_slug":null,"has_3d_model":false,"image_url":null,"decayed_at":null,"tle_current":{"epoch":"2026-05-25T03:41:17.581344Z","epoch_age_seconds":61741,"freshness":"FRESH","line1":"1 42915U 17047A   26145.15367571 -.00000103  00000+0  00000+0 0  9996","line2":"2 42915   3.4465   2.1881 0014159 101.7767 182.6385  1.00272091 32116","mean_motion":1.00272091,"eccentricity":0.0014159,"inclination_deg":3.4465,"raan_deg":2.1881,"arg_perigee_deg":101.7767,"mean_anomaly_deg":182.6385,"bstar":0,"rev_number":3211,"period_min":1436.0925214973,"perigee_km":35726.808255977,"apogee_km":35846.210101025,"semimajor_km":42164.646178501,"source":"CELESTRAK","updated_at":"2026-05-25T13:38:14.047146Z"}}}